Flag for Germany Weather past 2 weeks in Wittenberg, Saxony-Anhalt, Germany

Now
54 °F

Drizzle. Fog.


Feels Like: 53 °F
Forecast: 51 / 72 °F
Wind: 5 mph from Northeast

Location: Holzdorf


UV Index: 3 (Moderate)

Visibility: 0 mi


Pressure: 30.12 "Hg

Humidity: 100%

Dew point: 54 °F

Location of WittenbergLocation

Historic Weather in Wittenberg

°F

Wittenberg temperature yesterday

Maximum temperature yesterday: 68 °F (at 1:20 PM)
Minimum temperature yesterday: 45 °F (at 3:20 AM)
Average temperature yesterday: 58 °F

Past Weeks' High & Low Weather Summary

 TemperatureHumidityPressure
High68 °F (Apr 19, 4:20 PM)100% (Apr 9, 6:20 AM)30.45 "Hg (Apr 9, 6:20 AM)
Low27 °F (Apr 17, 4:20 AM)32% (Apr 16, 1:20 PM)29.71 "Hg (Apr 21, 1:20 PM)
Average50 °F75%30.01 "Hg
* Reported Apr 9 4:20 AM — Apr 24 4:20 AM, Wittenberg, Weather by CustomWeather, © 2014

Note: Actual official high and low records may vary slightly from our data, if they occured in-between our weather recording intervals... More about our weather records

Advertising

Historic Weather Conditions — Data for Previous 24 hours

 ConditionsComfort  
Time TempWeatherWind HumidityBarometerVisibility
4:20 AM
Apr 24
55 °FFog.3 mph100%30.12 "Hg0 mi
3:20 AM55 °FFog.5 mph100%30.12 "Hg0 mi
3:01 AM55 °FFog.3 mph100%30.12 "Hg0 mi
2:52 AM55 °FFog.3 mph100%30.12 "Hg1 mi
2:20 AM50 °FFog.2 mph100%30.12 "Hg1 mi
1:20 AM52 °FPassing clouds.2 mph100%30.12 "HgN/A
12:20 AM52 °FCool.2 mph100%30.12 "HgN/A
11:20 PM
Apr 23
54 °FPassing clouds.5 mph94%30.12 "HgN/A
10:20 PM57 °FPassing clouds.3 mph88%30.12 "HgN/A
9:20 PM59 °FPassing clouds.5 mph82%30.12 "HgN/A
8:20 PM61 °FScattered clouds.3 mph63%30.09 "HgN/A
7:20 PM66 °FScattered clouds.3 mph52%30.07 "HgN/A
6:20 PM68 °FScattered clouds.5 mph46%30.07 "HgN/A
5:20 PM68 °FPartly sunny.5 mph46%30.07 "HgN/A
5:00 PM68 °FPartly sunny.2 mph49%30.07 "HgN/A
4:20 PM68 °FBroken clouds.3 mph49%30.07 "HgN/A
3:20 PM68 °FBroken clouds.5 mph49%30.09 "HgN/A
2:20 PM68 °FBroken clouds.7 mph56%30.09 "HgN/A
1:20 PM68 °FScattered clouds.3 mph49%30.09 "HgN/A
12:20 PM64 °FScattered clouds.5 mph56%30.09 "HgN/A
11:20 AM64 °FPassing clouds.5 mph60%30.09 "HgN/A
10:20 AM61 °FScattered clouds.3 mph72%30.09 "Hg6 mi
9:20 AM55 °FScattered clouds.6 mph82%30.09 "Hg6 mi
8:20 AM54 °FPartly sunny.3 mph88%30.07 "Hg6 mi
7:20 AM52 °FPartly sunny.5 mph94%30.07 "Hg5 mi
6:20 AM46 °FFog.1 mph100%30.07 "Hg5 mi
Weather by CustomWeather, © 2014

See weather overview